Location: *
(46.7973°N, 23.2545°E)
Time: 16:37:03
(UTC+00:00)

Daily predictions for brighter satellites

Satellite Brightness Start Highest point End
(mag) Time Altitude Azimuth Time Altitude Azimuth Time Altitude Azimuth
Cosmos 1400 Rocket 3.1 15:35:09 10° NNW 15:39:17 77° W 15:43:20 10° S
Cosmos 773 Rocket 4.4 15:34:58 10° N 15:39:47 38° ENE 15:44:33 10° SE
CREW DRAGON DEMO-1 DEB 3.9 15:41:30 10° WNW 15:44:07 29° N 15:46:44 10° ENE
SeaSat 1 4.1 15:40:59 10° N 15:45:16 30° NW 15:49:32 10° WSW
NOAA 12 4.1 15:42:29 10° SSE 15:47:43 86° ENE 15:52:59 10° NNW
Cosmos 1726 Rocket 4.3 15:45:57 10° N 15:49:51 31° ENE 15:53:45 10° SE
CZ-4B R/B 2.7 15:47:20 10° NE 15:50:04 22° E 15:52:43 10° SSE
Landsat 5 3.3 15:46:29 10° NNE 15:50:29 88° WNW 15:54:20 10° SSW
Cosmos 2279 Rocket 4.2 15:48:21 10° N 15:54:26 49° ENE 16:00:28 10° SSE
Cosmos 2263 Rocket 2.2 15:50:11 10° SSW 15:55:50 72° ESE 16:01:31 10° NNE
USA 234 4.1 15:50:40 10° ENE 15:56:31 37° N 16:02:24 10° WNW
CORIOLIS 4.2 15:51:49 10° SSE 15:57:14 87° ENE 16:02:39 10° NNW
NOAA 11 4.2 15:53:09 10° SSE 15:58:40 81° ENE 16:04:12 10° NNW
COSMOS 2455 3.7 15:55:53 10° S 16:01:04 31° ESE 16:06:16 10° NE
SMAP 3.5 15:59:51 10° S 16:04:27 68° WSW 16:09:08 10° NNW
CZ-4C R/B 3.7 16:01:32 10° N 16:04:36 48° WNW 16:07:38 10° SSW
Cosmos 1536 Rocket 4.4 16:01:40 10° SSW 16:05:57 54° WNW 16:10:18 10° N
Cosmos 1634 Rocket 4.1 16:00:33 10° N 16:06:49 89° W 16:13:06 10° S
COSMO-SKYMED 1 3.2 16:03:04 10° NNE 16:07:06 36° E 16:11:06 10° SSE
ATLAS 3B R/B 3.3 16:00:15 10° NW 16:07:08 65° WSW 16:14:17 10° SSE
Cosmos 1455 3.7 16:05:14 10° NNE 16:07:39 16° ENE 16:10:04 10° ESE
Cosmos 1538 Rocket 4.4 16:05:08 10° N 16:10:01 40° ENE 16:14:51 10° SE
Cosmos 1939 Rocket 2.9 16:06:48 10° SSE 16:10:52 61° ENE 16:14:55 10° N
Cosmos 1300 2.6 16:07:38 10° N 16:11:29 81° E 16:15:17 10° SSE
NOSS 7 (E) 4.4 16:08:09 10° SW 16:11:56 83° NW 16:14:45 13° NE
Okean-O 3.5 16:09:01 10° ESE 16:12:43 27° ENE 16:16:28 10° N
Meteor 1-24 Rocket 3.5 16:09:30 10° S 16:14:49 69° E 16:20:06 10° NNE
ARGOS 4.2 16:11:14 10° ESE 16:15:21 23° ENE 16:19:30 10° N
Cosmos 1943 3.4 16:10:05 10° NNW 16:15:47 77° WSW 16:21:25 10° SSE
Cosmos 1777 Rocket 4.3 16:11:12 10° S 16:16:11 46° ESE 16:21:14 10° NNE
GENESIS II 4.2 16:12:37 10° SW 16:16:39 89° NW 16:20:19 12° NE
Okean O Rocket 2.1 16:13:03 10° S 16:17:28 65° WSW 16:21:54 10° NNW
Cosmos 1689 Rocket 4.0 16:18:23 14° ESE 16:18:23 14° ESE 16:19:22 10° SE
MOS 1 Rocket 3.7 16:14:20 10° NNE 16:18:19 34° E 16:22:13 10° SSE
Feng Yun 1-1 Rocket 4.2 16:13:29 10° SSE 16:18:50 66° ENE 16:24:19 10° N
Cosmos 1354 Rocket 4.2 16:15:07 10° SSW 16:20:26 76° WNW 16:25:48 10° NNE
CZ-4 R/B 2.1 16:17:21 10° SE 16:21:03 32° ENE 16:24:40 10° N
CZ-2C R/B 4.2 16:23:27 15° E 16:23:27 15° E 16:26:40 10° ESE
Cosmos 1315 Rocket 3.1 16:21:10 10° NNW 16:25:08 70° W 16:29:06 10° S
Aureole 2 Rocket 3.7 16:22:59 10° SSE 16:24:56 18° ESE 16:24:56 18° ESE
CZ-4 R/B 4.5 16:23:59 10° SSE 16:28:01 56° ENE 16:32:06 10° N
H-2A R/B 4.5 16:24:32 10° SSW 16:28:06 31° W 16:31:50 10° NNW
Cosmos 1833 Rocket 4.4 16:25:43 10° N 16:28:14 13° NE 16:28:49 13° NE
ERS-2 2.6 16:29:01 16° NE 16:31:29 36° E 16:34:52 10° SSE
CSL-04 DEB 4.5 16:28:41 10° NNE 16:32:57 86° WNW 16:37:04 10° SSW
Cosmos 1606 Rocket 4.0 16:36:00 10° NNW 16:40:21 64° W 16:44:43 10° S
IRS-1C Rocket 4.0 16:35:23 10° SSE 16:40:37 74° ENE 16:45:53 10° NNW
YAOGAN 1 2.8 16:37:04 10° SE 16:41:12 46° ENE 16:45:22 10° N
H-2A R/B 3.4 16:37:26 10° N 16:41:39 41° WNW 16:45:45 10° SW
Cosmos 1892 Rocket 3.4 16:37:42 10° S 16:42:02 76° E 16:46:23 10° NNE
TELKOM 3 4.4 16:40:17 10° SSW 16:42:18 25° SSE 16:42:18 25° SSE
CZ-4C R/B 3.6 16:38:33 10° W 16:43:16 32° NNW 16:48:40 11° NNE
Cosmos 1844 Rocket 3.0 16:45:27 10° S 16:50:47 44° ESE 16:53:44 24° NE
Lacrosse 5 1.9 16:48:58 10° NW 16:53:58 57° NNE 16:56:14 31° E
Nadezhda 4 Rocket 3.9 16:48:01 10° S 16:54:10 62° E 17:00:17 10° NNE
SKYMED 2 3.7 16:50:53 10° N 16:55:14 74° WNW 16:59:33 10° SSW
X-37B 2.5 16:54:23 10° SSW 16:56:40 20° SSE 16:56:40 20° SSE
ISS -2.5 16:54:47 10° SSW 16:57:34 28° SSE 16:57:34 28° SSE
CZ-2C R/B 3.3 16:53:34 10° S 16:58:48 77° WSW 17:04:23 10° NNW
Helios 1A Rocket 2.9 16:56:48 10° SSE 17:00:51 59° ENE 17:04:57 10° N
SJ 16-02 1.5 16:58:09 10° S 17:02:24 49° ESE 17:03:18 42° ENE
USA 267 4.0 17:01:09 27° E 17:03:12 32° SE 17:08:55 10° S
CZ-2D R/B 4.3 17:02:39 10° S 17:06:22 46° W 17:10:06 10° NNW
H-2A R/B 1.8 17:02:50 10° SSE 17:07:48 79° ENE 17:12:54 10° NNW
Cosmos 2058 Rocket 3.5 17:05:02 10° NNW 17:09:30 65° W 17:13:57 10° S
Cosmos 923 Rocket 4.0 17:06:35 10° NNW 17:11:54 59° ENE 17:14:47 26° SE
Meteor 2-1 Rocket 4.0 17:06:25 10° N 17:12:02 81° ENE 17:17:33 10° SSE
CSL-04 Rocket 3.6 17:09:20 10° SSE 17:14:39 64° ENE 17:20:04 10° N
ATLAS 2AS CENTAUR R/B 4.2 17:08:40 10° W 17:15:44 34° NNW 17:21:25 15° NNE
Meteor 2-10 Rocket 4.1 17:11:00 10° NNW 17:16:29 61° W 17:21:42 10° S
Okean 1-7 Rocket 3.9 17:14:58 10° SSW 17:19:29 68° W 17:24:04 10° N
Cosmos 1680 Rocket 3.6 17:14:32 10° NNW 17:19:41 52° ENE 17:20:14 50° E
Meteor 2-13 Rocket 4.4 17:13:48 10° S 17:19:54 90° W 17:26:05 10° N
CZ-4B R/B 3.7 17:19:24 10° NNW 17:22:12 24° WNW 17:24:58 10° WSW
ATLAS 5 CENTAUR R/B 3.2 17:18:46 10° W 17:22:23 28° NW 17:24:28 20° N
SAR-Lupe-4 3.9 17:22:23 47° NNW 17:23:14 65° WNW 17:26:46 10° SSW
Cosmos 1818 3.5 17:17:53 10° SSW 17:23:16 71° ESE 17:24:39 49° ENE
Cosmos 158 Rocket 3.9 17:20:16 10° NNW 17:25:37 82° ENE 17:29:27 20° SSE
Cosmos 2026 Rocket 3.9 17:25:34 10° S 17:31:29 57° E 17:33:53 35° NNE
Cosmos 1626 Rocket 3.5 17:31:15 10° S 17:35:37 85° W 17:35:54 78° NNW
SL-24 R/B - RUBIN 2 4.5 17:32:01 10° SW 17:38:42 89° SE 17:41:12 42° NE
USA 234 3.4 17:37:29 46° ENE 17:38:47 53° NNE 17:45:07 10° NW
Cosmos 2263 Rocket 4.2 17:35:50 10° W 17:40:20 24° NW 17:44:52 10° N
Aureole 3 4.4 17:37:54 10° NNW 17:40:38 35° WNW 17:40:38 35° WNW
Cosmos 1455 3.4 17:39:52 10° NNW 17:43:28 41° W 17:47:04 10° SSW
COSMOS 2406 4.2 17:39:43 10° NNW 17:43:21 32° NNE 17:43:21 32° NNE
COSMOS 2455 3.4 17:40:50 10° SW 17:46:43 54° NW 17:49:36 30° NNE
Okean-O 4.2 17:45:01 10° SSW 17:49:05 35° W 17:53:10 10° NNW
Iridium 4 Rocket 3.6 17:44:20 10° N 17:50:08 85° W 17:55:29 10° S
ARGOS 3.6 17:49:57 10° S 17:55:13 59° W 18:00:32 10° NNW
CZ-4 R/B 3.7 17:52:42 10° SSW 17:56:05 24° W 17:59:27 10° NW
Cosmos 2112 Rocket 4.2 17:51:33 10° NNW 17:55:56 62° NNW 17:55:56 62° NNW
Cosmos 2195 Rocket 4.5 17:50:33 10° S 17:56:53 82° W 18:03:16 10° N
CZ-2C R/B 2.8 18:04:57 73° SW 18:04:57 73° SW 18:10:00 10° SSW
Cosmos 1627 Rocket 4.5 17:58:42 10° SSW 18:04:52 80° W 18:11:10 10° N
Cosmos 1844 4.1 18:03:40 10° SW 18:09:15 61° WNW 18:09:55 57° NNW
Cosmos 2082 Rocket 4.1 18:08:10 10° NNW 18:09:49 18° N 18:09:49 18° N
Cosmos 1833 Rocket 4.2 18:08:02 10° NNW 18:10:32 26° N 18:10:32 26° N
NOSS 3-1 (C) 4.0 18:22:11 10° NW 18:29:42 84° SW 18:30:09 80° S
CZ-4C R/B 4.4 18:29:50 10° NW 18:33:52 18° N 18:33:52 18° N
Cosmos 1844 Rocket 4.0 18:29:39 10° WSW 18:34:48 34° NW 18:35:26 33° NW
Lacrosse 5 3.6 18:32:13 10° WNW 18:35:29 30° W 18:35:29 30° W
SJ 16-02 3.9 18:37:57 10° WSW 18:40:21 19° WNW 18:40:21 19° WNW
USA 229 DEB 4.1 18:38:44 10° NW 18:44:37 62° NW 18:44:37 62° NW
USA 229 4.2 18:38:50 10° NW 18:44:41 62° NW 18:44:41 62° NW
USA 267 3.8 18:48:30 51° WSW 18:48:30 51° WSW 18:53:12 10° WSW
NOSS 3-1 (A) 4.4 18:54:06 10° NW 18:59:43 57° NW 18:59:43 57° NW
Cosmos 2344 4.4 18:57:19 10° NW 19:06:47 73° SW 19:08:26 66° S
